[[{"header":{"parameterUnit":"m.s-1","parameterCategory":1,"la1":30.2992,"la2":30.254,"lo1":-89.0895,"lo2":-89.0443,"dy":0.0025,"dx":0.0025,"nx":19,"ny":19,"refTime":"2026-03-30T03:00:00:Z","depth":0,"parameterNumber":2,"parameterNumberName":"U-component_of_WINDS"},"data":[0,0,0,-4.61,-4.6101,-4.6168,-4.6168,-4.6275,-4.6276,0,0,0,0,0,0,0,0,0,0,0,-4.6095,-4.6096,-4.61,-4.6102,-4.6168,-4.6168,-4.6275,-4.6276,0,0,0,0,0,0,0,0,0,0,0,-4.6094,-4.6096,-4.6097,-4.6102,-4.6168,-4.6168,-4.6274,-4.6216,0,0,0,0,0,0,0,0,0,0,-4.6148,-4.6158,-4.6095,-4.6097,-4.6102,-4.6168,-4.6168,-4.6213,-4.622,-4.6255,0,-4.6291,0,-4.6286,-4.6285,-4.6285,0,0,0,-4.609,-4.6153,-4.6157,-4.6098,-4.6103,-4.6168,-4.6135,-4.6217,-4.6224,-4.6264,-4.6293,-4.6296,-4.6288,-4.6286,-4.6286,-4.653,-4.6532,0,0,-4.6086,-4.6114,-4.6152,-4.6163,-4.6156,-4.6133,-4.6137,-4.6221,-4.6253,-4.6293,-4.6298,-4.6289,-4.6287,-4.6288,-4.6529,-4.6531,0,0,0,-4.6084,-4.6112,-4.6114,-4.6159,-4.617,-4.6135,-4.614,-4.6249,-4.6248,-4.6299,-4.6291,-4.6287,-4.6289,-4.6527,-4.6529,-4.6639,0,0,0,-4.6081,-4.6111,-4.6113,-4.6131,-4.6169,-4.6211,-4.6167,-4.6242,-4.6251,-4.629,-4.6287,-4.629,-4.6525,-4.6528,-4.6632,-4.6685,0,0,0,-4.6085,-4.6111,-4.6126,-4.6132,-4.6162,-4.6209,-4.6212,-4.6243,-4.6246,-4.6285,-4.6291,-4.6524,-4.6527,-4.6625,-4.6674,-4.6756,0,0,0,-4.6098,-4.6222,-4.6128,-4.6263,-4.6162,-4.6277,-4.6211,-4.6295,-4.6342,-4.6288,-4.6525,-4.6529,-4.6623,-4.6668,-4.675,-4.6829,-4.6865,0,0,-4.627,-4.6244,-4.6321,-4.6239,-4.6378,-4.6265,-4.6419,-4.6435,-4.6413,-4.6492,-4.6498,-4.6634,-4.6674,-4.6755,-4.7061,-4.709,0,0,0,-4.6385,-4.6441,-4.6471,-4.6518,-4.6535,-4.6552,-4.6542,-4.6548,-4.6614,-4.646,-4.6686,-4.6709,-4.6755,-4.6791,-4.6816,-4.6853,-4.6548,-4.6547,-4.6547,-4.6666,-4.6633,-4.6758,-4.6733,-4.6779,-4.6768,-4.6801,-4.6807,-4.6759,-4.6813,-4.6835,-4.7026,-4.7069,-4.7088,-4.7127,-4.6876,-4.6877,-4.6877,-4.6877,-4.6913,-4.6986,-4.6921,-4.7019,-4.6982,-4.7063,-4.7058,-4.7021,-4.7091,-4.7006,-4.7045,-4.6953,-4.712,-4.7153,-4.6885,-4.6884,-4.6883,-4.6882,-4.6882,-4.7092,-4.7121,-4.7128,-4.7192,-4.7245,-4.7215,-4.7285,-4.725,-4.7216,-4.7255,-4.7274,-4.7272,-4.7264,-4.7267,-4.7268,-4.7269,-4.7269,-4.727,-4.727,-4.7274,-4.7278,-4.7342,-4.7371,-4.7396,-4.7425,-4.7416,-4.744,-4.7456,-4.7425,-4.7425,-4.737,-4.7144,-4.7087,-4.728,-4.7278,-4.7277,-4.7276,-4.7275,-4.7533,-4.7469,-4.7568,-4.7594,-4.7624,-4.7679,-4.7634,-4.7685,-4.77,-4.7735,-4.7673,-4.7513,-4.7483,-4.7463,-4.7415,-4.7682,-4.7682,-4.7682,-4.7682,-4.7682,-4.7664,-4.7757,-4.78,-4.7839,-4.7808,-4.792,-4.7915,-4.7899,-4.7906,-4.7863,-4.7797,-4.7779,-4.7759,-4.7733,-4.7687,-4.8017,-4.8018,-4.8018,-4.7838,-4.7823,-4.7925,-4.791,-4.7932,-4.7951,-4.8055,-4.8106,-4.8075,-4.8031,-4.791,-4.7896,-4.7789,-4.7757,-4.7707,-4.7667,-4.7583,0,0]},{"header":{"parameterUnit":"m.s-1","parameterCategory":1,"la1":30.2992,"la2":30.254,"lo1":-89.0895,"lo2":-89.0443,"dy":0.0025,"dx":0.0025,"nx":19,"ny":19,"refTime":"2026-03-30T03:00:00:Z","depth":0,"parameterNumber":3,"parameterNumberName":"V-component_of_WINDS"},"data":[0,0,0,1.6285,1.6286,1.6331,1.6331,1.6392,1.6392,0,0,0,0,0,0,0,0,0,0,0,1.6272,1.6272,1.6285,1.6286,1.6331,1.6331,1.6392,1.6392,0,0,0,0,0,0,0,0,0,0,0,1.6271,1.6272,1.6272,1.6286,1.6331,1.6331,1.6392,1.6357,0,0,0,0,0,0,0,0,0,0,1.6312,1.63,1.6272,1.6272,1.6286,1.6331,1.6331,1.6355,1.6359,1.6372,0,1.6383,0,1.6389,1.6397,1.6397,0,0,0,1.6286,1.6297,1.6309,1.6273,1.6287,1.6331,1.6311,1.6357,1.6362,1.6377,1.6384,1.6386,1.639,1.6397,1.6397,1.6472,1.6473,0,0,1.6283,1.628,1.6306,1.6312,1.6304,1.6309,1.6312,1.636,1.6367,1.6384,1.6387,1.6391,1.6397,1.6398,1.6472,1.6472,0,0,0,1.6276,1.6278,1.6289,1.6309,1.6317,1.6311,1.6314,1.6365,1.6369,1.6388,1.6391,1.6398,1.6398,1.6471,1.6472,1.6486,0,0,0,1.6275,1.6274,1.6288,1.6286,1.6316,1.6341,1.6318,1.6365,1.6371,1.6391,1.6398,1.6399,1.6471,1.6472,1.6485,1.6494,0,0,0,1.6269,1.6273,1.628,1.6286,1.6305,1.6341,1.6347,1.6366,1.6373,1.6397,1.6399,1.6471,1.6472,1.6484,1.6492,1.6513,0,0,0,1.6261,1.6291,1.628,1.6315,1.6305,1.6349,1.6347,1.638,1.6402,1.6398,1.6471,1.6472,1.6484,1.6491,1.6512,1.6531,1.6538,0,0,1.6297,1.6295,1.6316,1.6308,1.6353,1.6342,1.639,1.6413,1.6419,1.6455,1.6456,1.6486,1.6492,1.6513,1.658,1.6586,0,0,0,1.6327,1.6342,1.6355,1.6376,1.6395,1.6413,1.6429,1.6439,1.6469,1.6436,1.6499,1.6503,1.6516,1.6525,1.653,1.6542,1.6476,1.6476,1.6476,1.6372,1.6378,1.6414,1.6427,1.6447,1.6466,1.6484,1.65,1.6499,1.6514,1.6524,1.6564,1.6575,1.6579,1.6591,1.6535,1.6535,1.6535,1.6535,1.6425,1.6448,1.6449,1.6484,1.6491,1.6521,1.6542,1.6541,1.6571,1.6556,1.6568,1.6552,1.6585,1.6596,1.6536,1.6536,1.6536,1.6536,1.6536,1.6456,1.6468,1.6479,1.6512,1.6538,1.655,1.6579,1.6585,1.659,1.6602,1.6615,1.6614,1.6615,1.6608,1.6608,1.6608,1.6608,1.6608,1.6608,1.6482,1.6495,1.6519,1.6544,1.6559,1.6581,1.6602,1.6618,1.6637,1.6639,1.6639,1.6639,1.6587,1.6574,1.661,1.661,1.661,1.6609,1.6609,1.6535,1.6524,1.6561,1.6577,1.6608,1.6634,1.6642,1.6675,1.6689,1.6704,1.6702,1.6662,1.666,1.6657,1.6646,1.6699,1.6699,1.6699,1.6699,1.6561,1.6561,1.6601,1.6626,1.6652,1.6664,1.6707,1.6725,1.6742,1.6752,1.6745,1.6732,1.6728,1.6729,1.6723,1.6714,1.6782,1.6783,1.6783,1.6594,1.6597,1.6632,1.6648,1.6674,1.6697,1.6738,1.6769,1.6786,1.6786,1.676,1.6757,1.6735,1.6727,1.6725,1.6717,1.6699,0,0]}]]